TimeEDT,TemperatureF,Dew PointF,Humidity,Sea Level PressureIn,VisibilityMPH,Wind Direction,Wind SpeedMPH,Gust SpeedMPH,PrecipitationIn,Events,Conditions,WindDirDegrees,DateUTC
12:56 AM,44.1,34.0,68,30.28,10.0,Calm,Calm,-,N/A,,Clear,0,2013-05-27 04:56:00
1:56 AM,42.1,35.1,76,30.28,10.0,Calm,Calm,-,N/A,,Clear,0,2013-05-27 05:56:00
2:56 AM,41.0,34.0,76,30.28,10.0,Calm,Calm,-,N/A,,Clear,0,2013-05-27 06:56:00
3:56 AM,39.9,34.0,79,30.27,10.0,Calm,Calm,-,N/A,,Clear,0,2013-05-27 07:56:00
4:56 AM,42.1,35.1,76,30.27,10.0,Calm,Calm,-,N/A,,Clear,0,2013-05-27 08:56:00
5:56 AM,44.1,37.0,76,30.26,10.0,Calm,Calm,-,N/A,,Clear,0,2013-05-27 09:56:00
6:56 AM,46.0,37.9,73,30.27,10.0,Calm,Calm,-,N/A,,Clear,0,2013-05-27 10:56:00
7:56 AM,48.9,37.0,64,30.28,10.0,SSE,3.5,-,N/A,,Clear,150,2013-05-27 11:56:00
8:56 AM,52.0,37.0,57,30.28,10.0,ESE,5.8,-,N/A,,Clear,120,2013-05-27 12:56:00
9:56 AM,53.1,36.0,52,30.28,10.0,SSE,5.8,-,N/A,,Overcast,150,2013-05-27 13:56:00
10:56 AM,52.0,41.0,66,30.28,8.0,SSE,4.6,-,0.00,Rain,Light Rain,150,2013-05-27 14:56:00
11:56 AM,52.0,44.1,74,30.28,6.0,SE,4.6,-,0.03,Rain,Light Rain,140,2013-05-27 15:56:00
12:56 PM,53.1,46.9,80,30.26,8.0,SE,5.8,-,0.02,Rain,Light Rain,130,2013-05-27 16:56:00
1:56 PM,55.0,48.0,77,30.23,10.0,SSE,8.1,-,0.00,,Overcast,160,2013-05-27 17:56:00
2:56 PM,57.9,46.0,65,30.20,10.0,South,10.4,-,N/A,,Mostly Cloudy,170,2013-05-27 18:56:00
3:56 PM,59.0,45.0,60,30.19,10.0,South,6.9,-,N/A,,Mostly Cloudy,170,2013-05-27 19:56:00
4:56 PM,60.1,45.0,57,30.16,10.0,SE,10.4,-,N/A,,Partly Cloudy,140,2013-05-27 20:56:00
5:56 PM,60.1,45.0,57,30.14,10.0,SE,8.1,-,N/A,,Partly Cloudy,130,2013-05-27 21:56:00
6:56 PM,60.1,45.0,57,30.11,10.0,SE,10.4,-,N/A,,Clear,130,2013-05-27 22:56:00
7:56 PM,57.9,46.0,65,30.11,10.0,SE,6.9,-,N/A,,Overcast,130,2013-05-27 23:56:00
8:56 PM,57.9,45.0,62,30.08,10.0,ESE,10.4,-,N/A,,Overcast,120,2013-05-28 00:56:00
9:56 PM,55.9,48.0,75,30.09,10.0,East,6.9,-,0.01,Rain,Light Rain,100,2013-05-28 01:56:00
10:56 PM,55.0,48.0,77,30.08,10.0,SE,8.1,-,0.00,,Overcast,130,2013-05-28 02:56:00
11:56 PM,54.0,50.0,86,30.08,10.0,SE,5.8,-,0.01,Rain,Light Rain,130,2013-05-28 03:56:00